GPS BIIA-10 (PRN 32) 1 20959U 90103A 10075.80990271 .00000006 00000-0 10000-3 0 6141 2 20959 54.9991 272.0176 0133923 299.7257 59.0246 2.00573977141373 GPS BIIA-11 (PRN 24) 1 21552U 91047A 10075.56031477 .00000009 00000-0 10000-3 0 6071 2 21552 54.4005 210.0370 0058786 331.2388 28.3961 2.00420941136955 GPS BIIA-14 (PRN 26) 1 22014U 92039A 10076.21798258 -.00000061 00000-0 10000-3 0 5378 2 22014 56.7933 330.7414 0191333 60.9547 301.0018 2.00720801123118 GPS BIIA-15 (PRN 27) 1 22108U 92058A 10076.21802428 -.00000064 00000-0 10000-3 0 4291 2 22108 56.0161 23.9879 0219175 276.7183 80.7820 2.00565410128291 GPS BIIA-21 (PRN 09) 1 22700U 93042A 10076.23365132 -.00000062 00000-0 10000-3 0 7719 2 22700 56.1269 25.4007 0205284 87.9785 274.3577 2.00572280122450 GPS BIIA-23 (PRN 04) 1 22877U 93068A 10076.37510344 .00000016 00000-0 10000-3 0 995 2 22877 53.8208 207.2344 0089991 34.5353 326.0096 2.00565993120104 GPS BIIA-24 (PRN 06) 1 23027U 94016A 10076.08303073 .00000038 00000-0 10000-3 0 965 2 23027 53.5293 144.2525 0062537 294.7162 64.7139 2.00564097117406 GPS BIIA-25 (PRN 03) 1 23833U 96019A 10075.09980152 .00000037 00000-0 10000-3 0 2864 2 23833 53.1149 140.2881 0127351 56.8638 304.4330 2.00560532102365 GPS BIIA-26 (PRN 10) 1 23953U 96041A 10076.49142256 .00000010 00000-0 10000-3 0 7688 2 23953 54.6774 268.3897 0090053 36.6437 323.9548 2.00587651100184 GPS BIIA-27 (PRN 30) 1 24320U 96056A 10075.86972579 .00000029 00000-0 10000-3 0 5073 2 24320 54.7330 84.5980 0117351 84.6671 276.7199 2.00551919 98830 GPS BIIR-02 (PRN 13) 1 24876U 97035A 10075.96533162 -.00000062 00000-0 10000-3 0 2568 2 24876 56.9181 330.9295 0039593 94.4498 266.0613 2.00574990 92705 GPS BIIA-28 (PRN 08) 1 25030U 97067A 10076.09784560 -.00000054 00000-0 10000-3 0 1684 2 25030 56.8543 31.0335 0110133 178.9228 181.1200 2.00559993 90604 GPS BIIR-03 (PRN 11) 1 25933U 99055A 10075.74176044 .00000008 00000-0 10000-3 0 7097 2 25933 50.9126 193.9168 0103841 45.1501 315.6679 2.00556269 76518 GPS BIIR-04 (PRN 20) 1 26360U 00025A 10075.84365273 .00000007 00000-0 10000-3 0 8030 2 26360 53.7478 265.3830 0041304 73.6184 286.8352 2.00565394 72211 GPS BIIR-05 (PRN 28) 1 26407U 00040A 10076.17649733 .00000035 00000-0 10000-3 0 7492 2 26407 55.5505 89.0329 0160886 247.5878 110.7463 2.00564684 70898 GPS BIIR-06 (PRN 14) 1 26605U 00071A 10075.77776801 -.00000062 00000-0 10000-3 0 7567 2 26605 56.5377 329.7137 0051507 241.2865 118.2490 2.00559279 68482 GPS BIIR-07 (PRN 18) 1 26690U 01004A 10076.14299457 .00000006 00000-0 10000-3 0 6406 2 26690 53.7613 268.4577 0111507 226.2737 132.7976 2.00563321 66901 GPS BIIR-08 (PRN 16) 1 27663U 03005A 10074.99919381 .00000038 00000-0 10000-3 0 203 2 27663 55.6514 88.6308 0059957 342.7804 17.0692 2.00558137 52236 GPS BIIR-09 (PRN 21) 1 27704U 03010A 10075.56796486 .00000008 00000-0 10000-3 0 9260 2 27704 53.4452 207.9079 0162292 216.8605 141.9795 2.00559554 51039 GPS BIIR-10 (PRN 22) 1 28129U 03058A 10075.68816572 .00000004 00000-0 10000-3 0 5257 2 28129 53.6293 268.7642 0052867 250.2779 109.1560 2.00564859 45748 GPS BIIR-11 (PRN 19) 1 28190U 04009A 10076.13653942 .00000036 00000-0 10000-3 0 4741 2 28190 54.8758 151.5114 0062596 348.0843 11.8384 2.00559766 43928 GPS BIIR-12 (PRN 23) 1 28361U 04023A 10074.43174716 -.00000065 00000-0 10000-3 0 2971 2 28361 55.4927 327.6084 0064403 176.7294 183.3746 2.00558579 41971 GPS BIIR-13 (PRN 02) 1 28474U 04045A 10075.42831917 .00000007 00000-0 10000-3 0 1809 2 28474 53.8690 206.2423 0093222 171.8202 188.2977 2.00550319 39353 GPS BIIRM-1 (PRN 17) 1 28874U 05038A 10075.28027398 .00000035 00000-0 10000-3 0 4422 2 28874 55.0109 148.3759 0053360 214.6324 145.0909 2.00575421 32770 GPS BIIRM-2 (PRN 31) 1 29486U 06042A 10076.38150236 -.00000060 00000-0 10000-3 0 7688 2 29486 55.9351 27.1807 0078075 297.9722 61.2061 2.00568681 25491 GPS BIIRM-3 (PRN 12) 1 29601U 06052A 10075.83189501 .00000035 00000-0 10000-3 0 8136 2 29601 55.5781 87.6011 0035798 326.2309 33.5946 2.00555895 24398 GPS BIIRM-4 (PRN 15) 1 32260U 07047A 10075.63159774 -.00000061 00000-0 00000+0 0 5461 2 32260 54.6809 326.1826 0025003 340.5464 19.4146 2.00556942 17782 GPS BIIRM-5 (PRN 29) 1 32384U 07062A 10075.45734972 .00000036 00000-0 10000-3 0 5729 2 32384 55.0258 148.8401 0031590 283.0139 76.7096 2.00550267 16501 GPS BIIRM-6 (PRN 07) 1 32711U 08012A 10076.05171757 -.00000062 00000-0 10000-3 0 4327 2 32711 55.6299 27.2365 0032605 180.2996 179.6883 2.00558036 14723 GPS BIIRM-7 (PRN 01) 1 34661U 09014A 10075.90831080 .00000033 00000-0 10000-3 0 3440 2 34661 55.2269 86.8031 0042797 47.9125 312.4983 2.00434329 7233 GPS BIIRM-8 (PRN 05) 1 35752U 09043A 10075.52052786 .00000008 00000-0 10000-3 0 1181 2 35752 54.9632 266.9293 0017875 13.3645 346.6824 2.00565199 4295